TimeMDT,TemperatureF,Dew PointF,Humidity,Sea Level PressureIn,VisibilityMPH,Wind Direction,Wind SpeedMPH,Gust SpeedMPH,PrecipitationIn,Events,Conditions,WindDirDegrees,DateUTC
12:53 AM,71.1,30.9,23,29.78,10.0,South,11.5,-,N/A,,Clear,190,2013-08-06 06:53:00
1:53 AM,71.1,30.9,23,29.78,10.0,South,11.5,-,N/A,,Clear,190,2013-08-06 07:53:00
2:53 AM,70.0,30.9,24,29.78,10.0,South,11.5,-,N/A,,Clear,190,2013-08-06 08:53:00
3:53 AM,73.0,30.0,20,29.79,10.0,SSW,12.7,-,N/A,,Clear,210,2013-08-06 09:53:00
4:53 AM,69.1,32.0,25,29.80,10.0,SSW,12.7,-,N/A,,Clear,200,2013-08-06 10:53:00
5:53 AM,66.9,35.1,31,29.83,10.0,SSW,10.4,-,N/A,,Clear,200,2013-08-06 11:53:00
6:53 AM,68.0,37.0,32,29.86,10.0,SSW,12.7,-,N/A,,Clear,200,2013-08-06 12:53:00
7:53 AM,71.1,37.9,30,29.87,10.0,SSW,11.5,-,N/A,,Clear,200,2013-08-06 13:53:00
8:53 AM,75.9,39.0,26,29.89,10.0,SW,10.4,-,N/A,,Clear,230,2013-08-06 14:53:00
9:53 AM,80.1,39.9,24,29.90,10.0,West,12.7,-,N/A,,Clear,260,2013-08-06 15:53:00
10:53 AM,84.0,44.1,25,29.90,10.0,West,11.5,-,N/A,,Clear,270,2013-08-06 16:53:00
11:53 AM,84.9,44.1,24,29.90,10.0,WNW,11.5,-,N/A,,Clear,290,2013-08-06 17:53:00
12:53 PM,88.0,45.0,22,29.88,10.0,WNW,9.2,-,N/A,,Clear,290,2013-08-06 18:53:00
1:53 PM,89.1,43.0,20,29.88,10.0,NW,8.1,-,N/A,,Clear,320,2013-08-06 19:53:00
2:53 PM,91.9,39.0,16,29.86,10.0,NW,10.4,-,N/A,,Clear,310,2013-08-06 20:53:00
3:53 PM,91.9,37.0,15,29.83,10.0,NNW,6.9,-,N/A,,Clear,340,2013-08-06 21:53:00
4:53 PM,91.9,37.0,15,29.82,10.0,WNW,3.5,-,N/A,,Clear,300,2013-08-06 22:53:00
5:53 PM,91.9,30.9,11,29.81,10.0,West,10.4,-,N/A,,Clear,270,2013-08-06 23:53:00
6:53 PM,93.0,32.0,12,29.80,10.0,West,10.4,-,N/A,,Clear,280,2013-08-07 00:53:00
7:53 PM,89.1,42.1,19,29.79,10.0,West,9.2,-,N/A,,Clear,280,2013-08-07 01:53:00
8:53 PM,78.1,39.9,25,29.80,9.0,WSW,9.2,-,N/A,,Clear,240,2013-08-07 02:53:00
9:53 PM,77.0,34.0,21,29.81,10.0,WSW,10.4,-,N/A,,Clear,240,2013-08-07 03:53:00
10:53 PM,78.1,26.1,15,29.81,10.0,WSW,13.8,-,N/A,,Clear,240,2013-08-07 04:53:00
11:53 PM,71.1,28.9,21,29.81,10.0,South,15.0,-,N/A,,Clear,190,2013-08-07 05:53:00